This is the latest recevied weather packets stored in our database for station/object N4MGC. If no packets are shown the sender has not sent any weather packets the latest 1 day(s).
| Time | Temp. | Humidity | Pressure | Rain* | Wind** | Luminosity | Snow |
|---|---|---|---|---|---|---|---|
| 1777984742 | 12.22° C | 99% | 1013.9 hPa | 0 mm | 0 m/s | 42 W/m² | - |
| 1777984439 | 11.67° C | 99% | 1013.9 hPa | 0 mm | 0 m/s | 39 W/m² | - |
| 1777984135 | 11.67° C | 99% | 1013.9 hPa | 0 mm | 0 m/s | 34 W/m² | - |
| 1777983833 | 11.11° C | 99% | 1013.7 hPa | 0 mm | 0 m/s | 33 W/m² | - |
| 1777983529 | 11.11° C | 99% | 1013.7 hPa | 0 mm | 0 m/s | 31 W/m² | - |
| 1777983226 | 11.11° C | 99% | 1013.5 hPa | 0 mm | 0 m/s | 30 W/m² | - |
| 1777982922 | 10.56° C | 99% | 1013.7 hPa | 0 mm | 0 m/s | 28 W/m² | - |
| 1777982618 | 10.56° C | 99% | 1013.3 hPa | 0 mm | 0 m/s | 27 W/m² | - |
| 1777982317 | 10.56° C | 99% | 1013.5 hPa | 0 mm | 0 m/s | 26 W/m² | - |
| 1777982014 | 10° C | 99% | 1013.6 hPa | 0 mm | 0 m/s | 24 W/m² | - |
| 1777981712 | 10° C | 99% | 1013.6 hPa | 0 mm | 0 m/s | 23 W/m² | - |
| 1777981409 | 10° C | 99% | 1013.2 hPa | 0 mm | 0 m/s | 21 W/m² | - |
| 1777981105 | 10° C | 99% | 1013.2 hPa | 0 mm | 0 m/s | 19 W/m² | - |
| 1777980801 | 10° C | 99% | 1013.1 hPa | 0 mm | 0 m/s | 15 W/m² | - |
| 1777980497 | 10° C | 99% | 1013.1 hPa | 0 mm | 0 m/s | 14 W/m² | - |
| 1777980195 | 10° C | 99% | 1013.1 hPa | 0 mm | 0 m/s | 10 W/m² | - |
| 1777979890 | 10° C | 99% | 1012.8 hPa | 0 mm | 0 m/s | 6 W/m² | - |
| 1777979586 | 10° C | 99% | 1012.7 hPa | 0 mm | 0 m/s | 5 W/m² | - |
| 1777979282 | 10.56° C | 99% | 1012.9 hPa | 0 mm | 0 m/s | 3 W/m² | - |
| 1777978980 | 10.56° C | 99% | 1012.7 hPa | 0 mm | 0 m/s | 1 W/m² | - |
| 1777978676 | 10.56° C | 99% | 1012.6 hPa | 0 mm | 0 m/s | 0 W/m² | - |
| 1777978372 | 10.56° C | 99% | 1012.6 hPa | 0 mm | 0 m/s | 0 W/m² | - |
| 1777978069 | 10.56° C | 99% | 1012.5 hPa | 0 mm | 0 m/s | 0 W/m² | - |
| 1777977766 | 10.56° C | 99% | 1012.7 hPa | 0 mm | 0 m/s | 0 W/m² | - |
| 1777977462 | 10.56° C | 99% | 1012.6 hPa | 0 mm | 0 m/s | 0 W/m² | - |
* Rain latest hour (hover to see other rain measurements)
** Current wind speed in m/s (hover to see current wind gust speed)